Regional Weather Roundup
Issued by NWS

Home | Current Version | Previous Version | Text Only | Print | Product List | Glossary Off
Versions: 1 2 3 4 5 6 7 8 9 10 11 12 13 14 15 16 17 18 19 20 21 22 23 24 25 26 27 28 29 30 31 32 33 34 35 36 37 38 39 40 41 42 43 44 45 46 47 48 49 50

000
ASUS44 KMEG 230710
RWRTN
TENNESSEE HOURLY STATE WEATHER ROUNDUP
NATIONAL WEATHER SERVICE MEMPHIS TN
200 AM CDT MON APR 23 2018

TNZ002-004-019-021-049-052-054-088>092-230800-
WEST TENNESSEE

CITY           SKY/WX    TMP DP  RH WIND       PRES   REMARKS
MEMPHIS INTL   FOG       59  59 100 W12       29.79S VSB 1/2
NWS MEMPHIS      N/A     58 N/A N/A MISG        N/A
JACKSON        CLOUDY    58  58 100 NW3       29.75F FOG
DYERSBURG      RAIN      57  56  96 N3        29.77F
SOMERVILLE     CLOUDY    59  59 100 CALM      29.76F
COVINGTON      CLOUDY    57  57 100 NW6       29.77F
UNION CITY     CLOUDY    57  55  94 NE10G18   29.74F FOG
BOLIVAR        CLOUDY    59  57  94 S3        29.77S
PARIS          CLOUDY    57  55  94 NE10      29.74F FOG
HUNTINGDON     CLOUDY    57  57 100 N6        29.71F FOG
LEXINGTON      CLOUDY    57  57 100 S6        29.72S
SELMER         CLOUDY    57  57 100 SW5       29.77R FOG
SAVANNAH       CLOUDY    59  57  94 SW7       29.77R FOG
$$

TNZ008-025-027-028-033-062-065-066-230800-
NORTH MIDDLE TENNESSEE

CITY           SKY/WX    TMP DP  RH WIND       PRES   REMARKS
NASHVILLE      CLOUDY    58  55  90 E16G28    29.84F
PORTLAND       CLOUDY    57  55  94 E14G22    29.88F
CLARKSVILLE    CLOUDY    58  53  84 E15G30    29.82F
SMYRNA         CLOUDY    58  55  90 E14       29.86F
COOKEVILLE     CLOUDY    55  54  94 SE7G16    29.94S
LIVINGSTON     PTSUNNY   54  52  94 NE10      29.96F
GALLATIN       CLOUDY    57  55  94 E10G21    29.91F
CROSSVILLE     LGT RAIN  53  50  89 SE12G20   29.99F
ROCKWOOD       PTSUNNY   52  52 100 E10G16    30.00F FOG
$$

TNZ061-075-076-078-094-096-097-230800-
SOUTH MIDDLE TENNESSEE

CITY           SKY/WX    TMP DP  RH WIND       PRES   REMARKS
LEWISBURG      CLOUDY    61  57  88 SE12G25   29.80S FOG
FAYETTEVILLE   CLOUDY    61  57  88 SE23G30   29.83R FOG
TULLAHOMA      CLOUDY    59  55  88 SE15G26   29.85R
WINCHESTER     CLOUDY    59  55  88 SE16G23   29.87S
MCMINNVILLE    MOCLDY    57  54  88 SE16G26   29.88F
COLUMBIA       CLOUDY    59  59 100 SE9G20    29.77R FOG
SHELBYVILLE    CLOUDY    59  55  88 SE20G26   29.82F
$$

TNZ017-018-042-046-047-230800-
NORTHEAST TENNESSEE

CITY           SKY/WX    TMP DP  RH WIND       PRES   REMARKS
TRI CITIES     CLOUDY    59  48  67 E12G18    30.13F
ELIZABETHTON   CLOUDY    59  48  67 E14G20    30.15S
$$

TNZ012-013-036-069-073-074-230800-
CENTRAL EAST TENNESSEE

CITY           SKY/WX    TMP DP  RH WIND       PRES   REMARKS
KNOXVILLE      LGT RAIN  56  53  90 NE8       30.00F
OAK RIDGE      LGT RAIN  55  55 100 CALM      30.03F
DOWNTOWN KNOXV CLOUDY    55  54  94 CALM      30.02F
GATLINBURG     MOCLDY    63  48  59 VRB6G13   30.02S
MORRISTOWN     CLOUDY    59  50  72 SE16G22   30.05F
JACKSBORO      CLOUDY    54  52  94 CALM      30.08F
$$

TNZ083-085-099-230800-
SOUTHEAST TENNESSEE

CITY           SKY/WX    TMP DP  RH WIND       PRES   REMARKS
CHATTANOOGA    LGT RAIN  58  55  90 S3        29.96S FOG
DAYTON         CLOUDY    57  57 100 CALM      29.98F
$$

SKY/WX REPORTED AS FAIR MEANS FEW OR NO CLOUDS BELOW
12 THOUSAND FEET.




USA.gov is the U.S. government's official web portal to all federal, state and local government web resources and services.